FW7458 Weather Reports


time (UTC)temp
C
wind
direction
speed
KPH
gust
KPH
rain 1hr
cm
rain 24hr
cm
rain mn
cm
humidity
%
barometer
mb
20260505153034 10 11.3 27.4 0.00 0.18 0.18 69 1009.3
20260505152511 10 13 6.4 27.4 0.00 0.18 0.18 69 1009.2
20260505152011 10 21 8.0 25.7 0.00 0.18 0.18 69 1009.2
20260505151526 10 26 16.1 25.7 0.00 0.18 0.18 69 1009.1
20260505151007 10 26 16.1 32.2 0.00 0.18 0.18 69 1009.2
20260505150507 10 350 8.0 32.2 0.00 0.18 0.18 69 1009.2
20260505140512 11 17 12.9 29.0 0.00 0.18 0.18 70 1008.4
20260505125013 -17 0.0 0.0 0.00 0.18 0.18 1007.8
20260505124532 -17 0.0 0.0 0.00 0.18 0.18 1008.0
20260505124011 -17 0.0 0.0 0.00 0.18 0.18 1008.0
20260505123514 -17 0.0 0.0 0.00 0.18 0.18 1008.2
20260505123052 -17 0.0 0.0 0.00 0.18 0.18 1008.3
20260505122509 -17 0.0 0.0 0.00 0.18 0.18 1008.1
20260505122010 -17 0.0 0.0 0.00 0.18 0.18 1007.8
20260505121534 -17 0.0 0.0 0.00 0.18 0.18 1007.7
20260505121010 -17 0.0 0.0 0.00 0.18 0.18 1007.5
20260505120510 -17 0.0 0.0 0.00 0.18 0.18 1007.3
20260505120031 -17 0.0 0.0 0.00 0.18 0.18 1007.2
20260505115510 -17 0.0 0.0 0.00 0.18 0.18 1007.3
20260505115010 -17 0.0 0.0 0.00 0.18 0.18 1007.2
20260505114528 11 0.0 0.0 0.00 0.18 0.18 84 1006.9
20260505114013 11 8.0 22.5 0.00 0.18 0.18 84 1006.8
20260505113502 11 19 9.7 25.7 0.00 0.18 0.18 84 1006.8
20260505113012 11 20 8.0 25.7 0.00 0.18 0.18 84 1006.6
20260505112504 11 16 8.0 17.7 0.00 0.18 0.18 84 1006.7
20260505112001 11 50 6.4 20.9 0.00 0.18 0.18 85 1006.8
20260505111502 11 42 8.0 20.9 0.00 0.18 0.18 84 1006.5
20260505111002 11 9 4.8 24.1 0.00 0.18 0.18 84 1006.0
20260505110502 11 24 6.4 24.1 0.00 0.18 0.18 84 1006.0
20260505102003 11 38 14.5 24.1 0.00 0.18 0.18 84 1005.8
20260505101515 11 9 11.3 20.9 0.00 0.18 0.18 84 1006.1
20260505101004 11 352 11.3 22.5 0.00 0.18 0.18 84 1006.2
20260505100502 11 46 8.0 22.5 0.00 0.18 0.18 84 1005.8
20260505100004 11 35 4.8 19.3 0.00 0.18 0.18 84 1005.6
20260505095502 11 39 8.0 19.3 0.00 0.18 0.18 84 1005.4
20260505095002 11 5 8.0 17.7 0.00 0.18 0.18 84 1005.4
20260505094503 11 53 6.4 19.3 0.00 0.18 0.18 84 1005.7
20260505094003 12 74 8.0 19.3 0.00 0.18 0.18 84 1005.8
20260505093503 12 13 8.0 20.9 0.00 0.18 0.18 83 1005.8
20260505093006 12 352 8.0 30.6 0.00 0.18 0.18 83 1005.8
20260505092503 12 32 12.9 30.6 0.03 0.18 0.18 84 1006.0
20260505092004 12 9 11.3 27.4 0.03 0.18 0.18 83 1006.4
20260505091510 12 348 17.7 29.0 0.03 0.18 0.18 83 1006.5
20260505091003 12 40 9.7 33.8 0.05 0.18 0.18 83 1006.4
20260505090503 13 9 11.3 33.8 0.18 0.18 0.18 83 1006.4
20260505090016 13 69 11.3 22.5 0.18 0.18 0.18 83 1006.0
20260505085507 13 360 9.7 22.5 0.18 0.18 0.18 83 1005.6
20260505085010 13 21 9.7 20.9 0.18 0.18 0.18 82 1005.6
20260505084507 13 341 12.9 20.9 0.18 0.18 0.18 82 1005.5
20260505084010 13 15 11.3 24.1 0.18 0.18 0.18 81 1004.9
20260505083502 14 19 4.8 30.6 0.18 0.18 0.18 81 1005.0
20260505083012 14 352 14.5 37.0 0.18 0.18 0.18 80 1005.0
20260505082503 15 333 6.4 37.0 0.15 0.15 0.15 79 1005.1
20260505082004 15 24 12.9 35.4 0.15 0.15 0.15 76 1004.9
20260505081508 16 23 22.5 35.4 0.15 0.15 0.15 75 1004.7
20260505081009 18 350 14.5 24.1 0.13 0.13 0.13 78 1004.4
20260505080506 18 292 9.7 16.1 0.00 0.00 0.00 78 1004.5
20260505080036 18 305 3.2 9.7 0.00 0.00 0.00 76 1003.6
20260505075503 18 237 3.2 8.0 0.00 0.00 0.00 75 1003.3
20260505075007 18 213 3.2 9.7 0.00 0.00 0.00 74 1002.9
20260505074518 19 181 4.8 9.7 0.00 0.00 0.00 73 1002.9
20260505074004 19 193 4.8 8.0 0.00 0.00 0.00 73 1002.8
20260505073508 19 168 4.8 16.1 0.00 0.00 0.00 73 1002.7
20260505073003 19 215 6.4 16.1 0.00 0.00 0.00 72 1002.8
20260505072502 19 203 4.8 16.1 0.00 0.00 0.00 72 1002.9
20260505072003 19 200 8.0 19.3 0.00 0.00 0.00 71 1002.9
20260505071508 20 175 11.3 20.9 0.00 0.00 0.00 70 1002.9
20260505071003 20 227 9.7 22.5 0.00 0.00 0.00 70 1002.6
20260505070505 20 202 11.3 19.3 0.00 0.00 0.00 69 1002.4
20260505070009 20 182 4.8 22.5 0.00 0.00 0.00 68 1002.6
20260505065503 20 202 9.7 22.5 0.00 0.00 0.00 68 1002.7
20260505065004 20 190 4.8 16.1 0.00 0.00 0.00 68 1002.8
20260505064517 20 202 4.8 16.1 0.00 0.00 0.00 68 1002.9
20260505064004 20 182 8.0 16.1 0.00 0.00 0.00 68 1002.9
20260505063507 20 148 4.8 12.9 0.00 0.00 0.00 68 1003.1
20260505063021 20 171 3.2 14.5 0.00 0.00 0.00 68 1003.3
20260505062508 20 211 6.4 14.5 0.00 0.00 0.00 68 1003.3
20260505062009 20 186 3.2 12.9 0.00 0.00 0.00 68 1003.3
20260505061504 20 176 4.8 12.9 0.00 0.00 0.00 68 1003.1
20260505061007 20 193 6.4 11.3 0.00 0.00 0.00 68 1003.1
20260505060504 20 175 3.2 11.3 0.00 0.00 0.00 67 1003.2
20260505060012 20 210 3.2 11.3 0.00 0.00 0.00 67 1003.3
20260505055505 20 161 3.2 11.3 0.00 0.00 0.00 67 1003.2
20260505055003 20 207 4.8 11.3 0.00 0.00 0.00 66 1003.1
20260505054514 20 162 3.2 12.9 0.00 0.00 0.00 66 1002.9
20260505054012 20 181 4.8 19.3 0.00 0.00 0.00 66 1003.2
20260505053506 20 165 1.6 19.3 0.00 0.00 0.00 66 1003.3
20260505053030 20 171 3.2 12.9 0.00 0.00 0.00 65 1003.4
20260505052511 20 175 3.2 12.9 0.00 0.00 0.00 65 1003.4
20260505052011 20 201 1.6 11.3 0.00 0.00 0.00 64 1003.4
20260505051524 21 155 3.2 11.3 0.00 0.00 0.00 64 1003.4
20260505051009 21 180 3.2 8.0 0.00 0.00 0.00 64 1003.5
20260505050513 21 185 1.6 11.3 0.00 0.00 0.00 64 1003.6
20260505041530 21 206 3.2 12.9 0.00 0.00 0.00 61 1003.8
20260505041007 21 188 8.0 12.9 0.00 0.00 0.00 61 1003.7
20260505040507 21 192 6.4 12.9 0.00 0.00 0.00 61 1003.7
20260505040028 21 164 4.8 9.7 0.00 0.00 0.00 61 1003.9
20260505035509 21 155 3.2 11.3 0.00 0.00 0.00 61 1004.0
20260505035010 21 184 4.8 12.9 0.00 0.00 0.00 60 1004.0
20260505034509 21 176 4.8 14.5 0.00 0.00 0.00 60 1004.2
20260505034007 21 207 4.8 19.3 0.00 0.00 0.00 60 1003.9
20260505033506 22 157 6.4 19.3 0.00 0.00 0.00 60 1003.7
20260505033017 22 157 6.4 14.5 0.00 0.00 0.00 60 1003.6
20260505032508 22 158 8.0 22.5 0.00 0.00 0.00 60 1003.6
20260505032009 22 227 8.0 25.7 0.00 0.00 0.00 60 1003.4
20260505031522 22 175 6.4 25.7 0.00 0.00 0.00 60 1003.2
20260505031008 22 185 9.7 0.0 0.00 0.00 0.00 60 1003.2
20260505030513 -17 0.0 0.0 0.00 0.00 0.00 1003.1
20260505030030 -17 0.0 0.0 0.00 0.00 0.00 1003.1
20260505025511 -17 0.0 0.0 0.00 0.00 0.00 1003.2
20260505025009 22 0.0 0.0 0.00 0.00 0.00 60 1003.3
20260505024542 22 244 4.8 22.5 0.00 0.00 0.00 60 1003.2
20260505024007 22 158 11.3 24.1 0.00 0.00 0.00 60 1003.2
20260505023509 22 213 11.3 24.1 0.00 0.00 0.00 60 1003.3
20260505023011 22 360 8.0 24.1 0.00 0.00 0.00 59 1003.3
20260505022517 22 159 11.3 24.1 0.00 0.00 0.00 59 1003.3
20260505022013 22 178 8.0 24.1 0.00 0.00 0.00 59 1003.1
20260505021539 22 200 9.7 20.9 0.00 0.00 0.00 59 1003.0
20260505021010 22 238 8.0 19.3 0.00 0.00 0.00 58 1002.9
20260505020511 22 168 8.0 19.3 0.00 0.00 0.00 58 1002.9
20260505020028 22 145 9.7 20.9 0.00 0.00 0.00 57 1002.9
20260505015511 23 190 14.5 25.7 0.00 0.00 0.00 57 1002.9
20260505015017 23 250 8.0 24.1 0.00 0.00 0.00 57 1002.8
20260505014536 23 205 11.3 22.5 0.00 0.00 0.00 57 1002.8
20260505014010 23 215 8.0 20.9 0.00 0.00 0.00 57 1002.9
20260505013512 23 192 12.9 25.7 0.00 0.00 0.00 56 1002.8
20260505013031 23 206 17.7 25.7 0.00 0.00 0.00 57 1002.7
20260505012509 23 197 8.0 29.0 0.00 0.00 0.00 57 1002.6
20260505012009 23 217 6.4 29.0 0.00 0.00 0.00 57 1002.6
20260505011533 23 199 12.9 24.1 0.00 0.00 0.00 57 1002.6
20260505011011 23 215 12.9 27.4 0.00 0.00 0.00 57 1002.5
20260505010506 23 146 12.9 27.4 0.00 0.00 0.00 57 1002.4
20260505010041 23 203 11.3 27.4 0.00 0.00 0.00 57 1002.4
20260505005507 23 174 11.3 25.7 0.00 0.00 0.00 57 1002.4
20260505005013 23 191 14.5 38.6 0.00 0.00 0.00 57 1002.5
20260505004524 23 221 9.7 38.6 0.00 0.00 0.00 57 1002.4
20260505004009 23 209 6.4 22.5 0.00 0.00 0.00 56 1002.3
20260505003506 23 244 9.7 24.1 0.00 0.00 0.00 56 1002.3
20260505003006 24 214 11.3 24.1 0.00 0.00 0.00 56 1002.3
20260505002504 24 215 14.5 24.1 0.00 0.00 0.00 55 1002.4
20260505002004 24 179 11.3 24.1 0.00 0.00 0.00 55 1002.4
20260505001506 24 219 14.5 25.7 0.00 0.00 0.00 55 1002.3
20260505001005 24 151 14.5 32.2 0.00 0.00 0.00 55 1002.3
20260505000503 25 211 11.3 25.7 0.00 0.00 0.00 54 1002.3
20260505000009 25 215 12.9 22.5 0.00 0.00 0.00 54 1002.3
20260504235503 25 210 12.9 32.2 0.00 0.00 0.00 54 1002.3
20260504235003 25 229 14.5 30.6 0.00 0.00 0.00 54 1002.2
20260504234508 25 191 14.5 24.1 0.00 0.00 0.00 54 1002.3
20260504234003 25 203 8.0 24.1 0.00 0.00 0.00 54 1002.3
20260504233504 25 226 12.9 24.1 0.00 0.00 0.00 54 1002.4
20260504233006 25 213 11.3 37.0 0.00 0.00 0.00 54 1002.3
20260504232503 25 200 16.1 40.2 0.00 0.00 0.00 53 1002.4
20260504232003 25 146 24.1 40.2 0.00 0.00 0.00 52 1002.5
20260504231522 26 160 16.1 38.6 0.00 0.00 0.00 52 1002.5
20260504231004 26 198 12.9 38.6 0.00 0.00 0.00 52 1002.4
20260504230504 26 194 17.7 35.4 0.00 0.00 0.00 52 1002.4
20260504230008 26 155 17.7 35.4 0.00 0.00 0.00 52 1002.4
20260504225503 26 278 11.3 29.0 0.00 0.00 0.00 51 1002.3
20260504225003 26 209 17.7 37.0 0.00 0.00 0.00 51 1002.2
20260504224503 26 206 12.9 37.0 0.00 0.00 0.00 51 1002.2
20260504224003 26 188 14.5 33.8 0.00 0.00 0.00 51 1002.2
20260504223503 26 217 17.7 32.2 0.00 0.00 0.00 51 1002.2
20260504223006 26 221 14.5 32.2 0.00 0.00 0.00 50 1002.3
20260504222504 27 209 11.3 25.7 0.00 0.00 0.00 50 1002.3
20260504222004 27 209 9.7 25.7 0.00 0.00 0.00 51 1002.3
20260504221508 27 217 8.0 25.7 0.00 0.00 0.00 50 1002.3
20260504221005 26 228 11.3 30.6 0.00 0.00 0.00 50 1002.3
20260504220504 26 191 16.1 30.6 0.00 0.00 0.00 50 1002.4
20260504220017 26 191 12.9 27.4 0.00 0.00 0.00 50 1002.5
20260504215504 26 207 17.7 30.6 0.00 0.00 0.00 50 1002.5
20260504215005 26 207 14.5 30.6 0.00 0.00 0.00 49 1002.5
20260504214510 26 202 8.0 32.2 0.00 0.00 0.00 49 1002.6
20260504214003 26 198 12.9 32.2 0.00 0.00 0.00 49 1002.7
20260504213504 26 202 12.9 32.2 0.00 0.00 0.00 49 1002.6
20260504213009 26 220 12.9 33.8 0.00 0.00 0.00 48 1002.7
20260504212503 27 184 17.7 33.8 0.00 0.00 0.00 48 1002.9
20260504212002 26 213 12.9 33.8 0.00 0.00 0.00 48 1002.8
20260504211512 26 209 12.9 33.8 0.00 0.00 0.00 48 1002.8
20260504211003 26 171 19.3 33.8 0.00 0.00 0.00 48 1002.9
20260504210504 26 212 11.3 30.6 0.00 0.00 0.00 49 1002.9
20260504210012 26 207 12.9 30.6 0.00 0.00 0.00 49 1003.0
20260504205503 26 227 11.3 24.1 0.00 0.00 0.00 49 1003.0
20260504205007 26 226 11.3 29.0 0.00 0.00 0.00 48 1003.1
20260504204511 26 228 9.7 32.2 0.00 0.00 0.00 49 1003.2
20260504204004 26 196 16.1 33.8 0.00 0.00 0.00 48 1003.1
20260504203504 26 230 16.1 33.8 0.00 0.00 0.00 48 1003.1
20260504203022 26 193 17.7 30.6 0.00 0.00 0.00 48 1003.2
20260504202504 26 217 17.7 30.6 0.00 0.00 0.00 47 1003.3
20260504202003 26 183 19.3 30.6 0.00 0.00 0.00 47 1003.3
20260504201514 26 212 16.1 33.8 0.00 0.00 0.00 47 1003.3
20260504201005 26 208 17.7 32.2 0.00 0.00 0.00 47 1003.3
20260504200503 26 225 12.9 32.2 0.00 0.00 0.00 47 1003.5
20260504200010 26 238 12.9 27.4 0.00 0.00 0.00 48 1003.5
20260504195503 26 169 12.9 29.0 0.00 0.00 0.00 48 1003.5
20260504195005 26 216 16.1 29.0 0.00 0.00 0.00 48 1003.5
20260504194531 26 246 12.9 29.0 0.00 0.00 0.00 47 1003.6
20260504194005 26 196 9.7 30.6 0.00 0.00 0.00 48 1003.6
20260504193507 26 210 16.1 30.6 0.00 0.00 0.00 48 1003.6
20260504193018 26 242 14.5 27.4 0.00 0.00 0.00 48 1003.7
20260504192507 26 182 16.1 35.4 0.00 0.00 0.00 48 1003.8
20260504192007 25 275 11.3 35.4 0.00 0.00 0.00 48 1003.7
20260504191519 25 243 16.1 32.2 0.00 0.00 0.00 48 1003.8
20260504191003 25 200 12.9 30.6 0.00 0.00 0.00 49 1003.9
20260504190503 25 218 16.1 33.8 0.00 0.00 0.00 49 1003.9
20260504190007 25 232 17.7 41.8 0.00 0.00 0.00 49 1003.9
20260504185504 25 182 19.3 41.8 0.00 0.00 0.00 48 1003.9
20260504185004 25 221 16.1 29.0 0.00 0.00 0.00 48 1003.9
20260504184518 25 220 14.5 27.4 0.00 0.00 0.00 48 1003.9
20260504184004 25 173 16.1 40.2 0.00 0.00 0.00 50 1003.9
20260504183509 25 200 17.7 40.2 0.00 0.00 0.00 50 1004.0
20260504183018 25 199 16.1 41.8 0.00 0.00 0.00 49 1004.0
20260504182503 25 135 14.5 41.8 0.00 0.00 0.00 50 1003.9
20260504182010 25 191 20.9 32.2 0.00 0.00 0.00 51 1003.9
20260504181521 25 237 14.5 41.8 0.00 0.00 0.00 51 1004.1
20260504181010 24 227 17.7 40.2 0.00 0.00 0.00 50 1004.0
20260504180508 25 217 16.1 29.0 0.00 0.00 0.00 51 1004.1
20260504180024 25 153 12.9 30.6 0.00 0.00 0.00 51 1003.9
20260504175507 24 221 14.5 29.0 0.00 0.00 0.00 51 1004.1
20260504175005 25 222 14.5 35.4 0.00 0.00 0.00 50 1004.1
20260504174510 24 165 12.9 35.4 0.00 0.00 0.00 51 1004.1
20260504174008 24 233 14.5 30.6 0.00 0.00 0.00 50 1003.9
20260504173508 24 238 19.3 30.6 0.00 0.00 0.00 50 1003.9
20260504173022 24 184 12.9 29.0 0.00 0.00 0.00 51 1004.1
20260504172508 23 184 12.9 29.0 0.00 0.00 0.00 51 1004.2
20260504172006 24 221 12.9 32.2 0.00 0.00 0.00 51 1004.4
20260504171521 23 206 14.5 32.2 0.00 0.00 0.00 50 1004.4
20260504171009 23 214 19.3 30.6 0.00 0.00 0.00 50 1004.6
20260504170506 23 207 16.1 29.0 0.00 0.00 0.00 49 1004.5